This is the latest recevied weather packets stored in our database for station/object KE0PRS. If no packets are shown the sender has not sent any weather packets the latest 10 day(s).
| Time | Temp. | Humidity | Pressure | Rain* | Wind** | Luminosity | Snow |
|---|---|---|---|---|---|---|---|
| 1787655832 | 21.11° C | 87% | 1017.5 hPa | 0 mm | - | 0 W/m² | - |
| 1787655531 | 21.11° C | 88% | 1017.6 hPa | 0 mm | - | 0 W/m² | - |
| 1787655230 | 21.11° C | 87% | 1017.6 hPa | 0 mm | - | 0 W/m² | - |
| 1787654926 | 21.11° C | 87% | 1017.6 hPa | 0 mm | - | 0 W/m² | - |
| 1787654622 | 21.11° C | 88% | 1017.5 hPa | 0 mm | - | 0 W/m² | - |
| 1787654317 | 20.56° C | 88% | 1017.8 hPa | 0 mm | - | 0 W/m² | - |
| 1787654013 | 20° C | 87% | 1017.7 hPa | 0 mm | - | 0 W/m² | - |
| 1787653712 | 20.56° C | 87% | 1017.3 hPa | 0 mm | - | 0 W/m² | - |
| 1787653407 | 20.56° C | 87% | 1016.9 hPa | 0 mm | - | 0 W/m² | - |
| 1787653103 | 20.56° C | 87% | 1016.9 hPa | 0 mm | - | 0 W/m² | - |
| 1787652798 | 20.56° C | 87% | 1016.8 hPa | 0 mm | - | 0 W/m² | - |
| 1787652493 | 20.56° C | 87% | 1016.7 hPa | 0 mm | - | 0 W/m² | - |
| 1787652188 | 21.11° C | 87% | 1016.6 hPa | 0 mm | - | 0 W/m² | - |
| 1787651888 | 21.11° C | 87% | 1016.5 hPa | 0 mm | - | 0 W/m² | - |
| 1787651588 | 21.11° C | 87% | 1016.7 hPa | 0 mm | - | 0 W/m² | - |
| 1787651287 | 21.11° C | 87% | 1016.5 hPa | 0 mm | - | 0 W/m² | - |
| 1787650983 | 21.11° C | 86% | 1016.4 hPa | 0 mm | - | 0 W/m² | - |
| 1787650679 | 21.11° C | 86% | 1016.6 hPa | 0 mm | - | 0 W/m² | - |
| 1787650375 | 21.67° C | 85% | 1016.6 hPa | 0 mm | - | 0 W/m² | - |
| 1787650074 | 21.67° C | 85% | 1016.5 hPa | 0 mm | - | 0 W/m² | - |
| 1787649769 | 21.67° C | 85% | 1016.5 hPa | 0 mm | - | 0 W/m² | - |
| 1787649465 | 21.67° C | 85% | 1016.6 hPa | 0 mm | - | 0 W/m² | - |
| 1787649160 | 21.67° C | 85% | 1016.4 hPa | 0 mm | - | 0 W/m² | - |
| 1787648854 | 21.67° C | 85% | 1016.6 hPa | 0 mm | - | 0 W/m² | - |
| 1787648554 | 21.67° C | 85% | 1016.7 hPa | 0 mm | - | 0 W/m² | - |
* Rain latest hour (hover to see other rain measurements)
** Current wind speed in m/s (hover to see current wind gust speed)